Weather History for Fort Myers Airport, FL

Change the Weather History Date:

Tuesday, January 1, 2013

  Actual Average Record
Temperature  
Mean Temperature 68 °F -  
Max Temperature 78 °F 77 °F 87 °F (1991)
Min Temperature 57 °F 56 °F 30 °F (2001)
Cooling Degree Days 2    
Growing Degree Days 18 (Base 50)    
Moisture  
Dew Point 58 °F    
Average Humidity 74    
Maximum Humidity 93    
Minimum Humidity 50    
Precipitation  
Precipitation 0.00 in - - ()
Sea Level Pressure  
Sea Level Pressure 30.11 in    
Wind  
Wind Speed 4 mph (South)    
Max Wind Speed 14 mph    
Max Gust Speed 18 mph    
Visibility 10 miles    
Events      
Averages and records for this station are not official NWS values.
T = Trace of Precipitation, MM = Missing Value Source: NWS Daily Summary

Daily Weather History Graph

Daily Weather History Graph

Search for Another Location

Airport:

Trip Planner

Search our weather history database for the weather conditions in past years. The results will help you decide how hot, cold, wet, or windy it might be!

Date:

Astronomy

Jan. 01, 2013 Rise Set
Actual Time 7:15 AM EST 5:46 PM EST
Civil Twilight 6:50 AM EST 6:11 PM EST
Nautical Twilight 6:21 AM EST 6:40 PM EST
Astronomical Twilight 5:53 AM EST 7:08 PM EST
Moon 9:49 PM EST (1/1) 9:50 AM EST (1/1)
Length of Visible Light 11h 21m
Length of Day
10h 30m
Waning Gibbous, 83% of the Moon is Illuminated
Jan 1
Waning Gibbous
Jan 4
Last Quarter
Jan 11
New
Jan 18
First Quarter
Jan 26
Full

Hourly Weather History & Observations

Time (EST) Temp. Dew Point Humidity Pressure Visibility Wind Dir Wind Speed Gust Speed Precip Events Conditions
12:53 AM 61.0 °F 55.9 °F 83% 30.20 in 8.0 mi NE 4.6 mph - N/A   Overcast
1:53 AM 60.1 °F 57.0 °F 90% 30.19 in 6.0 mi ENE 4.6 mph - N/A   Overcast
2:53 AM 61.0 °F 57.0 °F 87% 30.19 in 9.0 mi Calm Calm - N/A   Overcast
3:53 AM 61.0 °F 57.0 °F 87% 30.17 in 9.0 mi Calm Calm - N/A   Overcast
4:53 AM 60.1 °F 57.0 °F 90% 30.16 in 10.0 mi Calm Calm - N/A   Overcast
5:53 AM 60.1 °F 55.9 °F 86% 30.14 in 10.0 mi SSE 3.5 mph - N/A   Mostly Cloudy
6:53 AM 60.1 °F 55.9 °F 86% 30.14 in 10.0 mi SE 3.5 mph - N/A   Partly Cloudy
7:53 AM 57.0 °F 55.0 °F 93% 30.15 in 9.0 mi Calm Calm - N/A   Clear
8:53 AM 64.0 °F 57.9 °F 80% 30.16 in 10.0 mi SSE 3.5 mph - N/A   Clear
9:53 AM 71.1 °F 57.9 °F 63% 30.16 in 10.0 mi SSE 9.2 mph - N/A   Clear
10:53 AM 75.0 °F 57.0 °F 53% 30.14 in 10.0 mi South 13.8 mph - N/A   Clear
11:53 AM 75.9 °F 57.0 °F 52% 30.12 in 10.0 mi South 13.8 mph 18.4 mph N/A   Clear
12:53 PM 77.0 °F 57.0 °F 50% 30.09 in 10.0 mi South 13.8 mph - N/A   Partly Cloudy
1:53 PM 77.0 °F 57.0 °F 50% 30.06 in 10.0 mi SSW 9.2 mph - N/A   Clear
2:53 PM 78.1 °F 57.9 °F 50% 30.05 in 10.0 mi SSW 6.9 mph - N/A   Clear
3:53 PM 77.0 °F 57.9 °F 52% 30.05 in 10.0 mi SSW 8.1 mph - N/A   Partly Cloudy
4:53 PM 75.9 °F 59.0 °F 56% 30.04 in 10.0 mi SSW 8.1 mph - N/A   Partly Cloudy
5:53 PM 73.0 °F 60.1 °F 64% 30.05 in 10.0 mi WSW 4.6 mph - N/A   Clear
6:53 PM 69.1 °F 60.1 °F 73% 30.06 in 10.0 mi Calm Calm - N/A   Clear
7:53 PM 68.0 °F 61.0 °F 78% 30.07 in 10.0 mi Calm Calm - N/A   Overcast
8:53 PM 64.9 °F 61.0 °F 87% 30.07 in 10.0 mi Calm Calm - N/A   Clear
9:53 PM 64.0 °F 60.1 °F 87% 30.08 in 10.0 mi Calm Calm - N/A   Clear
10:53 PM 61.0 °F 57.9 °F 90% 30.07 in 10.0 mi Calm Calm - N/A   Partly Cloudy
11:53 PM 63.0 °F 60.1 °F 90% 30.06 in 10.0 mi Calm Calm - N/A   Overcast